Regional Weather Roundup
Issued by NWS

Home | Current Version | Previous Version | Text Only | Print | Product List | Glossary Off
Versions: 1 2 3 4 5 6 7 8 9 10 11 12 13 14 15 16 17 18 19 20 21 22 23 24 25 26 27 28 29 30 31 32 33 34 35 36 37 38 39 40 41 42 43 44 45 46 47 48 49 50

000
ASUS43 KFSD 280110
RWRSD

WEATHER ROUNDUP FOR SOUTH DAKOTA
NATIONAL WEATHER SERVICE SIOUX FALLS SD
800 PM CDT THU APR 27 2017

NOTE: "FAIR" INDICATES FEW OR NO CLOUDS BELOW 12,000 FEET WITH NO
SIGNIFICANT WEATHER AND/OR OBSTRUCTIONS TO VISIBILITY.


SDZ001>005-009-010-012>017-280200-
NORTHWEST AND NORTH CENTRAL SOUTH DAKOTA

CITY           SKY/WX    TMP DP  RH WIND       PRES   REMARKS
BUFFALO          N/A     47  27  45 E12       29.63R
FAITH            N/A     46  30  53 E10       29.70R
MOBRIDGE       CLEAR     53  24  32 N9        29.69R
$$

SDZ012>016-024>037-041>051-057-063-072>074-280200-
SOUTHWEST AND SOUTH CENTRAL SOUTH DAKOTA

CITY           SKY/WX    TMP DP  RH WIND       PRES   REMARKS
RAPID CTY ARPT CLOUDY    45  32  60 NE10      29.67R
PIERRE         CLEAR     46  32  58 NW6       29.70R
CUSTER         MIX PCPN  33  29  85 NE14      29.62R WCI  23
ELLSWORTH AFB  CLOUDY    45  32  61 E8        29.67R
PHILIP         PTCLDY    46  32  58 NE10      29.69S
PINE RIDGE     RAIN      44  39  82 E8        29.64R
SPEARFISH      CLOUDY    39  34  81 E15       29.66S
WINNER         FAIR      49  33  54 E8        29.69R
$$

SDZ004>011-016>023-039-040-280200-
NORTHEAST SOUTH DAKOTA

CITY           SKY/WX    TMP DP  RH WIND       PRES   REMARKS
ABERDEEN       CLEAR     48  27  44 N9        29.73R
WATERTOWN      CLOUDY    40  30  67 N8        29.72R
BROOKINGS      CLEAR     40  27  59 N13       29.74R
SISSETON         N/A     40  30  67 CALM      29.72R
$$

SDZ017-020-022-023-036>040-048>070-280200-
SOUTHEAST SOUTH DAKOTA

CITY           SKY/WX    TMP DP  RH WIND       PRES   REMARKS
SIOUX FALLS    PTCLDY    46  32  58 N6        29.73R
HURON          CLEAR     45  29  53 NE8       29.73R
CHAMBERLAIN    CLEAR     51  34  52 NE3       29.71R
MITCHELL       CLEAR     48  30  49 NE8       29.74R
YANKTON        CLEAR     50  30  46 N5        29.73R
$$

ABBREVIATIONS USED IN REMARKS
   TC - TEMPERATURE IN CELSIUS
  WCI - WIND CHILL INDEX
   HX - HEAT INDEX
  VSB - VISIBILITY




USA.gov is the U.S. government's official web portal to all federal, state and local government web resources and services.